Location: Kaarina
(60.4167°N, 22.4167°E)
Time: 12:01:43
(UTC+03:00)

Cosmos 1544 - Pass Details

Date: 24 August 2019
Orbit: 475 x 491 km, 82.5° (Epoch: 21 October)

Event Time Altitude Azimuth Distance (km) Brightness Sun altitude
Exits shadow 23:20:09 21° 113° (ESE) 1,141 4.5 -13.9°
Maximum altitude 23:21:05 23° 89° (E) 1,064 4.5 -14.0°
Drops below altitude 10° 23:24:00 10° 35° (NE) 1,664 6.1 -14.2°
Sets 23:26:23 0° 21° (NNE) 2,547 7.3 -14.3°
